RYR67ZT EGSS-EPWA

Flight info

Callsign RYR67ZT
Flight time 2h 4m
Altitude 37000
Route CLN P44 RATLO M197 REDFA DCT TACHA DCT GILAS DCT MOLIL DCT VEMAL P851 BIMPA
Aircraft B738/M-SDE2E3FGHIRWXY/LB1

Departure

Time 2026-05-05 21:21
Airport London Stansted Airport (EGSS)

Arrival

Time 2026-05-05 23:25
Airport Warsaw Chopin Airport (EPWA)
Time Latitude Longitude Altitude Speed Heading
2026-05-05 20:51 51.89417 0.25889 350 ft 0 kts 223°
2026-05-05 21:10 51.89418 0.25891 350 ft 1 kts 223°
2026-05-05 21:10 51.89429 0.25907 350 ft 2 kts 223°
2026-05-05 21:10 51.89440 0.25924 350 ft 2 kts 222°
2026-05-05 21:10 51.89449 0.25943 350 ft 2 kts 248°
2026-05-05 21:11 51.89453 0.25966 350 ft 2 kts 268°
2026-05-05 21:11 51.89451 0.25991 350 ft 2 kts 289°
2026-05-05 21:11 51.89445 0.26011 350 ft 1 kts 308°
2026-05-05 21:11 51.89440 0.26018 350 ft 1 kts 314°
2026-05-05 21:12 51.89439 0.26021 350 ft 0 kts 313°
2026-05-05 21:15 51.89447 0.26007 350 ft 7 kts 313°
2026-05-05 21:15 51.89500 0.25916 350 ft 12 kts 313°
2026-05-05 21:15 51.89524 0.25797 350 ft 12 kts 240°
2026-05-05 21:15 51.89447 0.25682 346 ft 17 kts 219°
2026-05-05 21:16 51.89355 0.25550 344 ft 18 kts 226°
2026-05-05 21:16 51.89258 0.25394 342 ft 21 kts 222°
2026-05-05 21:16 51.89139 0.25212 340 ft 25 kts 223°
2026-05-05 21:16 51.89001 0.25004 334 ft 29 kts 222°
2026-05-05 21:17 51.88846 0.24778 331 ft 29 kts 225°
2026-05-05 21:17 51.88699 0.24555 330 ft 28 kts 223°
2026-05-05 21:17 51.88558 0.24335 330 ft 27 kts 225°
2026-05-05 21:17 51.88411 0.24127 331 ft 28 kts 221°
2026-05-05 21:18 51.88265 0.23903 335 ft 29 kts 224°
2026-05-05 21:18 51.88115 0.23676 340 ft 29 kts 222°
2026-05-05 21:18 51.87961 0.23447 340 ft 29 kts 223°
2026-05-05 21:18 51.87823 0.23238 340 ft 24 kts 223°
2026-05-05 21:19 51.87735 0.23054 338 ft 18 kts 279°
2026-05-05 21:19 51.87778 0.22884 339 ft 15 kts 237°
2026-05-05 21:19 51.87694 0.22752 337 ft 18 kts 221°
2026-05-05 21:19 51.87593 0.22603 338 ft 20 kts 223°
2026-05-05 21:20 51.87521 0.22450 337 ft 15 kts 281°
2026-05-05 21:20 51.87592 0.22307 338 ft 17 kts 319°
2026-05-05 21:20 51.87703 0.22276 340 ft 17 kts 40°
2026-05-05 21:20 51.87796 0.22421 340 ft 21 kts 42°
2026-05-05 21:21 51.88000 0.22728 340 ft 70 kts 43°
2026-05-05 21:21 51.88506 0.23489 341 ft 127 kts 42°
2026-05-05 21:21 51.89263 0.24638 408 ft 166 kts 43°
2026-05-05 21:21 51.90066 0.25891 1133 ft 158 kts 43°
2026-05-05 21:22 51.90840 0.27066 1866 ft 153 kts 41°
2026-05-05 21:22 51.91547 0.28405 2293 ft 166 kts 61°
2026-05-05 21:22 51.91789 0.30291 2706 ft 186 kts 87°
2026-05-05 21:22 51.91467 0.32495 3062 ft 213 kts 109°
2026-05-05 21:23 51.90718 0.34644 3535 ft 230 kts 116°
2026-05-05 21:23 51.89951 0.36969 3986 ft 245 kts 111°
2026-05-05 21:23 51.89215 0.39617 3971 ft 261 kts 109°
2026-05-05 21:23 51.88485 0.42309 4007 ft 270 kts 110°
2026-05-05 21:24 51.87697 0.45108 4672 ft 276 kts 111°
2026-05-05 21:24 51.86879 0.47925 4969 ft 277 kts 112°
2026-05-05 21:24 51.86060 0.50702 4971 ft 272 kts 112°
2026-05-05 21:24 51.85245 0.53454 4995 ft 274 kts 112°
2026-05-05 21:25 51.84407 0.56304 5650 ft 280 kts 112°
2026-05-05 21:25 51.83581 0.59114 6494 ft 279 kts 111°
2026-05-05 21:25 51.82984 0.62059 7232 ft 279 kts 96°
2026-05-05 21:25 51.82912 0.65127 7936 ft 279 kts 85°
2026-05-05 21:26 51.83058 0.68270 8626 ft 282 kts 83°
2026-05-05 21:26 51.83234 0.71422 9302 ft 286 kts 83°
2026-05-05 21:26 51.83394 0.74654 9976 ft 289 kts 84°
2026-05-05 21:26 51.83530 0.77901 10477 ft 299 kts 85°
2026-05-05 21:27 51.83663 0.81336 10824 ft 315 kts 85°
2026-05-05 21:27 51.83801 0.84944 11147 ft 331 kts 85°
2026-05-05 21:27 51.83941 0.88701 11591 ft 342 kts 85°
2026-05-05 21:27 51.84083 0.92596 12198 ft 348 kts 85°
2026-05-05 21:28 51.84225 0.96466 12865 ft 353 kts 85°
2026-05-05 21:28 51.84371 1.00418 13535 ft 357 kts 86°
2026-05-05 21:28 51.84518 1.04427 14204 ft 360 kts 86°
2026-05-05 21:28 51.84668 1.08483 14841 ft 363 kts 85°
2026-05-05 21:29 51.84926 1.12553 15481 ft 366 kts 81°
2026-05-05 21:29 51.85454 1.16563 16104 ft 368 kts 73°
2026-05-05 21:29 51.86278 1.20423 16708 ft 370 kts 68°
2026-05-05 21:29 51.87279 1.24263 17310 ft 372 kts 65°
2026-05-05 21:30 51.88346 1.28068 17888 ft 368 kts 64°
2026-05-05 21:30 51.89411 1.31833 18107 ft 377 kts 64°
2026-05-05 21:30 51.90498 1.35717 18698 ft 378 kts 65°
2026-05-05 21:30 51.91564 1.39595 19235 ft 381 kts 65°
2026-05-05 21:31 51.92629 1.43523 19727 ft 385 kts 65°
2026-05-05 21:31 51.93698 1.47503 20290 ft 387 kts 65°
2026-05-05 21:31 51.94760 1.51480 20775 ft 390 kts 66°
2026-05-05 21:31 51.95839 1.55540 21248 ft 394 kts 66°
2026-05-05 21:32 51.96913 1.59597 21780 ft 396 kts 66°
2026-05-05 21:32 51.98003 1.63729 22248 ft 399 kts 66°
2026-05-05 21:32 51.99041 1.67922 22695 ft 402 kts 70°
2026-05-05 21:32 51.99895 1.72223 23171 ft 405 kts 74°
2026-05-05 21:33 52.00629 1.76616 23619 ft 407 kts 76°
2026-05-05 21:33 52.01315 1.81092 24061 ft 410 kts 77°
2026-05-05 21:33 52.01975 1.85537 24491 ft 413 kts 77°
2026-05-05 21:33 52.02653 1.90122 24941 ft 416 kts 77°
2026-05-05 21:34 52.03330 1.94680 25361 ft 419 kts 77°
2026-05-05 21:34 52.04017 1.99265 25785 ft 422 kts 77°
2026-05-05 21:34 52.04714 2.03887 26195 ft 424 kts 77°
2026-05-05 21:34 52.05416 2.08524 26603 ft 427 kts 77°
2026-05-05 21:35 52.06120 2.13174 27002 ft 430 kts 77°
2026-05-05 21:35 52.06830 2.17874 27407 ft 432 kts 78°
2026-05-05 21:35 52.07559 2.22691 27724 ft 436 kts 77°
2026-05-05 21:35 52.08278 2.27447 28066 ft 439 kts 78°
2026-05-05 21:36 52.09020 2.32371 28471 ft 441 kts 78°
2026-05-05 21:36 52.09748 2.37216 28803 ft 444 kts 78°
2026-05-05 21:36 52.10488 2.42158 29199 ft 446 kts 78°
2026-05-05 21:36 52.11216 2.47045 29592 ft 447 kts 78°
2026-05-05 21:37 52.11984 2.52006 29906 ft 450 kts 77°
2026-05-05 21:37 52.12848 2.56872 30486 ft 447 kts 75°
2026-05-05 21:37 52.13773 2.61712 30889 ft 448 kts 75°
2026-05-05 21:37 52.14720 2.66536 31294 ft 448 kts 75°
2026-05-05 21:38 52.15672 2.71360 31728 ft 447 kts 75°
2026-05-05 21:38 52.16618 2.76182 32179 ft 445 kts 75°
2026-05-05 21:38 52.17542 2.80936 32562 ft 444 kts 75°
2026-05-05 21:38 52.18460 2.85721 32954 ft 443 kts 76°
2026-05-05 21:39 52.19369 2.90503 33323 ft 443 kts 76°
2026-05-05 21:39 52.20266 2.95255 33650 ft 443 kts 76°
2026-05-05 21:39 52.21167 3.00051 33981 ft 442 kts 76°
2026-05-05 21:39 52.22060 3.04833 34277 ft 443 kts 76°
2026-05-05 21:40 52.22938 3.09639 34590 ft 441 kts 78°
2026-05-05 21:40 52.23595 3.14463 34949 ft 438 kts 83°
2026-05-05 21:40 52.24033 3.19368 35200 ft 436 kts 86°
2026-05-05 21:40 52.24365 3.24245 35400 ft 434 kts 87°
2026-05-05 21:41 52.24671 3.29143 35533 ft 435 kts 86°
2026-05-05 21:41 52.24987 3.34095 35674 ft 435 kts 86°
2026-05-05 21:41 52.25313 3.38970 35809 ft 436 kts 86°
2026-05-05 21:41 52.25656 3.43837 35938 ft 436 kts 85°
2026-05-05 21:42 52.26021 3.48808 36081 ft 436 kts 85°
2026-05-05 21:42 52.26391 3.53691 36237 ft 435 kts 85°
2026-05-05 21:42 52.26765 3.58532 36389 ft 434 kts 85°
2026-05-05 21:42 52.27146 3.63419 36561 ft 433 kts 85°
2026-05-05 21:43 52.27525 3.68247 36775 ft 431 kts 85°
2026-05-05 21:43 52.27905 3.73101 36925 ft 431 kts 85°
2026-05-05 21:43 52.28663 3.82838 36930 ft 437 kts 85°
2026-05-05 21:44 52.29422 3.92660 36923 ft 440 kts 85°
2026-05-05 21:44 52.30180 4.02541 36926 ft 438 kts 85°
2026-05-05 21:45 52.30930 4.12423 36923 ft 440 kts 85°
2026-05-05 21:45 52.31672 4.22308 36924 ft 439 kts 85°
2026-05-05 21:46 52.32401 4.32157 36921 ft 438 kts 85°
2026-05-05 21:46 52.33120 4.41966 36921 ft 438 kts 85°
2026-05-05 21:47 52.33836 4.51855 36919 ft 438 kts 86°
2026-05-05 21:47 52.34540 4.61710 36919 ft 439 kts 86°
2026-05-05 21:48 52.35235 4.71538 36916 ft 438 kts 86°
2026-05-05 21:48 52.35930 4.81475 36914 ft 437 kts 86°
2026-05-05 21:49 52.36613 4.91381 36918 ft 438 kts 86°
2026-05-05 21:49 52.37285 5.01258 36918 ft 440 kts 87°
2026-05-05 21:50 52.37952 5.11169 36914 ft 439 kts 87°
2026-05-05 21:50 52.38610 5.21068 36911 ft 439 kts 86°
2026-05-05 21:51 52.39265 5.31052 36911 ft 438 kts 87°
2026-05-05 21:51 52.39901 5.40880 36902 ft 437 kts 87°
2026-05-05 21:52 52.40846 5.55733 36906 ft 438 kts 87°
2026-05-05 21:53 52.41465 5.65620 36902 ft 438 kts 88°
2026-05-05 21:53 52.42078 5.75546 36901 ft 437 kts 88°
2026-05-05 21:54 52.42681 5.85457 36899 ft 438 kts 88°
2026-05-05 21:54 52.43277 5.95391 36892 ft 437 kts 88°
2026-05-05 21:55 52.43865 6.05333 36894 ft 437 kts 88°
2026-05-05 21:55 52.44441 6.15218 36889 ft 437 kts 88°
2026-05-05 21:56 52.45009 6.25090 36884 ft 436 kts 88°
2026-05-05 21:56 52.45569 6.34963 36888 ft 438 kts 89°
2026-05-05 21:57 52.46121 6.44844 36890 ft 436 kts 89°
2026-05-05 21:57 52.46667 6.54714 36888 ft 436 kts 88°
2026-05-05 21:58 52.47203 6.64617 36877 ft 437 kts 89°
2026-05-05 21:58 52.47738 6.74624 36876 ft 435 kts 89°
2026-05-05 21:59 52.48256 6.84507 36873 ft 437 kts 89°
2026-05-05 21:59 52.48767 6.94382 36871 ft 435 kts 90°
2026-05-05 22:00 52.49270 7.04274 36866 ft 435 kts 90°
2026-05-05 22:00 52.49762 7.14182 36870 ft 435 kts 90°
2026-05-05 22:01 52.50246 7.24048 36868 ft 437 kts 90°
2026-05-05 22:01 52.50723 7.33974 36874 ft 436 kts 90°
2026-05-05 22:02 52.51191 7.43837 36866 ft 433 kts 90°
2026-05-05 22:02 52.51647 7.53707 36861 ft 435 kts 90°
2026-05-05 22:03 52.52098 7.63597 36868 ft 436 kts 90°
2026-05-05 22:03 52.52543 7.73473 36870 ft 436 kts 91°
2026-05-05 22:04 52.52976 7.83366 36862 ft 433 kts 91°
2026-05-05 22:04 52.53402 7.93275 36863 ft 436 kts 91°
2026-05-05 22:05 52.53820 8.03163 36865 ft 436 kts 91°
2026-05-05 22:05 52.54233 8.13120 36863 ft 437 kts 91°
2026-05-05 22:06 52.54639 8.23092 36852 ft 435 kts 91°
2026-05-05 22:06 52.55034 8.32949 36859 ft 436 kts 91°
2026-05-05 22:07 52.55418 8.42881 36856 ft 438 kts 91°
2026-05-05 22:07 52.55797 8.52829 36853 ft 437 kts 91°
2026-05-05 22:08 52.56168 8.62777 36846 ft 438 kts 91°
2026-05-05 22:08 52.56532 8.72766 36842 ft 437 kts 92°
2026-05-05 22:09 52.56886 8.82787 36845 ft 438 kts 92°
2026-05-05 22:09 52.57229 8.92716 36842 ft 437 kts 92°
2026-05-05 22:10 52.57565 9.02683 36846 ft 438 kts 92°
2026-05-05 22:10 52.57893 9.12675 36851 ft 439 kts 92°
2026-05-05 22:11 52.58209 9.22655 36849 ft 438 kts 92°
2026-05-05 22:11 52.58520 9.32669 36858 ft 442 kts 92°
2026-05-05 22:12 52.58826 9.42748 36854 ft 441 kts 92°
2026-05-05 22:12 52.59123 9.52791 36860 ft 441 kts 92°
2026-05-05 22:13 52.59416 9.62865 36855 ft 441 kts 92°
2026-05-05 22:13 52.59701 9.72928 36862 ft 440 kts 93°
2026-05-05 22:14 52.59975 9.83027 36858 ft 443 kts 93°
2026-05-05 22:14 52.60238 9.93085 36859 ft 440 kts 92°
2026-05-05 22:15 52.60488 10.03127 36860 ft 442 kts 93°
2026-05-05 22:15 52.60734 10.13223 36866 ft 442 kts 93°
2026-05-05 22:16 52.60971 10.23371 36859 ft 443 kts 92°
2026-05-05 22:16 52.61201 10.33502 36857 ft 443 kts 92°
2026-05-05 22:17 52.61420 10.43572 36848 ft 444 kts 92°
2026-05-05 22:17 52.61636 10.53696 36854 ft 443 kts 92°
2026-05-05 22:18 52.61840 10.63805 36845 ft 445 kts 93°
2026-05-05 22:18 52.62038 10.73976 36844 ft 445 kts 93°
2026-05-05 22:19 52.62229 10.84102 36850 ft 444 kts 93°
2026-05-05 22:19 52.62410 10.94207 36842 ft 445 kts 93°
2026-05-05 22:20 52.62581 11.04276 36847 ft 444 kts 93°
2026-05-05 22:20 52.62743 11.14443 36843 ft 445 kts 93°
2026-05-05 22:21 52.62899 11.24603 36849 ft 446 kts 93°
2026-05-05 22:21 52.63042 11.34741 36855 ft 446 kts 93°
2026-05-05 22:22 52.63177 11.44874 36840 ft 445 kts 93°
2026-05-05 22:22 52.63304 11.54990 36838 ft 445 kts 93°
2026-05-05 22:23 52.63422 11.65167 36847 ft 445 kts 94°
2026-05-05 22:23 52.63530 11.75286 36840 ft 443 kts 94°
2026-05-05 22:24 52.63630 11.85372 36840 ft 445 kts 94°
2026-05-05 22:24 52.63722 11.95586 36840 ft 445 kts 94°
2026-05-05 22:25 52.63807 12.05763 36834 ft 445 kts 94°
2026-05-05 22:25 52.63883 12.15900 36836 ft 446 kts 93°
2026-05-05 22:26 52.63951 12.26038 36828 ft 444 kts 94°
2026-05-05 22:26 52.64008 12.36155 36828 ft 446 kts 93°
2026-05-05 22:27 52.64057 12.46359 36822 ft 447 kts 93°
2026-05-05 22:27 52.64099 12.56490 36829 ft 447 kts 94°
2026-05-05 22:28 52.64132 12.66726 36823 ft 446 kts 94°
2026-05-05 22:28 52.64156 12.76890 36826 ft 446 kts 94°
2026-05-05 22:29 52.64169 12.87016 36827 ft 446 kts 94°
2026-05-05 22:29 52.64174 12.97236 36829 ft 448 kts 94°
2026-05-05 22:30 52.64169 13.07471 36829 ft 447 kts 94°
2026-05-05 22:30 52.64153 13.17632 36827 ft 448 kts 94°
2026-05-05 22:31 52.64130 13.27893 36835 ft 450 kts 94°
2026-05-05 22:31 52.64101 13.38119 36824 ft 449 kts 94°
2026-05-05 22:32 52.64066 13.48313 36834 ft 450 kts 94°
2026-05-05 22:32 52.64021 13.58576 36832 ft 450 kts 94°
2026-05-05 22:33 52.63965 13.68875 36825 ft 449 kts 95°
2026-05-05 22:33 52.63902 13.79053 36822 ft 449 kts 95°
2026-05-05 22:34 52.63826 13.89393 36817 ft 450 kts 95°
2026-05-05 22:34 52.63744 13.99576 36817 ft 450 kts 95°
2026-05-05 22:35 52.63651 14.09901 36812 ft 450 kts 95°
2026-05-05 22:35 52.63551 14.20212 36817 ft 453 kts 95°
2026-05-05 22:36 52.63438 14.30460 36817 ft 452 kts 95°
2026-05-05 22:36 52.63317 14.40819 36820 ft 453 kts 94°
2026-05-05 22:37 52.63188 14.51121 36823 ft 452 kts 95°
2026-05-05 22:37 52.63120 14.61375 36817 ft 453 kts 93°
2026-05-05 22:38 52.63155 14.71712 36815 ft 452 kts 94°
2026-05-05 22:38 52.63199 14.82023 36818 ft 452 kts 94°
2026-05-05 22:39 52.63222 14.92383 36810 ft 455 kts 94°
2026-05-05 22:39 52.63225 15.02734 36810 ft 454 kts 93°
2026-05-05 22:40 52.63213 15.13106 36803 ft 455 kts 94°
2026-05-05 22:40 52.63191 15.23493 36807 ft 455 kts 93°
2026-05-05 22:41 52.63158 15.33856 36805 ft 455 kts 93°
2026-05-05 22:41 52.63117 15.44295 36807 ft 453 kts 93°
2026-05-05 22:42 52.63066 15.54579 36810 ft 454 kts 93°
2026-05-05 22:42 52.63003 15.65005 36807 ft 453 kts 93°
2026-05-05 22:43 52.62936 15.75347 36807 ft 455 kts 94°
2026-05-05 22:43 52.62857 15.85704 36810 ft 453 kts 94°
2026-05-05 22:44 52.62769 15.96023 36815 ft 455 kts 94°
2026-05-05 22:44 52.62673 16.06383 36821 ft 455 kts 94°
2026-05-05 22:45 52.62568 16.16748 36822 ft 454 kts 94°
2026-05-05 22:45 52.62454 16.27143 36814 ft 454 kts 94°
2026-05-05 22:46 52.62332 16.37436 36811 ft 455 kts 94°
2026-05-05 22:46 52.62201 16.47846 36819 ft 455 kts 93°
2026-05-05 22:47 52.62060 16.58230 36817 ft 455 kts 93°
2026-05-05 22:47 52.61910 16.68615 36818 ft 456 kts 94°
2026-05-05 22:48 52.61751 16.78987 36819 ft 455 kts 94°
2026-05-05 22:48 52.61581 16.89353 36814 ft 454 kts 94°
2026-05-05 22:49 52.61405 16.99698 36808 ft 455 kts 94°
2026-05-05 22:49 52.61218 17.10085 36808 ft 455 kts 94°
2026-05-05 22:50 52.61022 17.20497 36804 ft 454 kts 94°
2026-05-05 22:50 52.60819 17.30798 36803 ft 454 kts 94°
2026-05-05 22:51 52.60606 17.41137 36801 ft 453 kts 94°
2026-05-05 22:51 52.60385 17.51439 36803 ft 454 kts 94°
2026-05-05 22:52 52.60155 17.61774 36800 ft 453 kts 94°
2026-05-05 22:52 52.59916 17.72077 36800 ft 453 kts 95°
2026-05-05 22:53 52.59665 17.82427 36804 ft 452 kts 95°
2026-05-05 22:53 52.59409 17.92698 36803 ft 452 kts 95°
2026-05-05 22:54 52.58998 18.02960 36800 ft 450 kts 99°
2026-05-05 22:54 52.57965 18.13025 36560 ft 446 kts 104°
2026-05-05 22:54 52.57347 18.18049 36135 ft 442 kts 104°
2026-05-05 22:55 52.56727 18.22966 35581 ft 443 kts 104°
2026-05-05 22:55 52.56101 18.27927 35070 ft 441 kts 104°
2026-05-05 22:55 52.55482 18.32887 34499 ft 439 kts 104°
2026-05-05 22:55 52.54880 18.37763 33962 ft 436 kts 104°
2026-05-05 22:56 52.54287 18.42625 33456 ft 432 kts 104°
2026-05-05 22:56 52.53696 18.47494 32936 ft 429 kts 104°
2026-05-05 22:56 52.53118 18.52277 32425 ft 425 kts 103°
2026-05-05 22:56 52.52551 18.56979 31926 ft 422 kts 103°
2026-05-05 22:57 52.51981 18.61701 31424 ft 418 kts 103°
2026-05-05 22:57 52.51420 18.66351 30926 ft 414 kts 104°
2026-05-05 22:57 52.50862 18.70965 30436 ft 410 kts 103°
2026-05-05 22:57 52.50312 18.75492 29954 ft 407 kts 103°
2026-05-05 22:58 52.49760 18.80013 29469 ft 403 kts 104°
2026-05-05 22:58 52.49216 18.84464 28980 ft 400 kts 104°
2026-05-05 22:58 52.48669 18.88923 28501 ft 397 kts 103°
2026-05-05 22:58 52.48130 18.93308 28024 ft 394 kts 103°
2026-05-05 22:59 52.47594 18.97657 27549 ft 391 kts 104°
2026-05-05 22:59 52.47054 19.02026 27067 ft 387 kts 104°
2026-05-05 22:59 52.46528 19.06273 26600 ft 384 kts 104°
2026-05-05 22:59 52.45995 19.10560 26133 ft 381 kts 104°
2026-05-05 23:00 52.44946 19.18952 25207 ft 375 kts 104°
2026-05-05 23:00 52.44424 19.23108 24755 ft 372 kts 104°
2026-05-05 23:00 52.43906 19.27218 24309 ft 369 kts 104°
2026-05-05 23:01 52.43391 19.31300 23859 ft 367 kts 104°
2026-05-05 23:01 52.42873 19.35382 23415 ft 364 kts 104°
2026-05-05 23:01 52.42362 19.39393 22976 ft 361 kts 104°
2026-05-05 23:01 52.41853 19.43379 22541 ft 359 kts 104°
2026-05-05 23:02 52.41344 19.47357 22095 ft 356 kts 104°
2026-05-05 23:02 52.40839 19.51290 21663 ft 354 kts 104°
2026-05-05 23:02 52.40338 19.55184 21233 ft 351 kts 104°
2026-05-05 23:02 52.39836 19.59084 20796 ft 349 kts 104°
2026-05-05 23:03 52.39337 19.62942 20373 ft 346 kts 104°
2026-05-05 23:03 52.38841 19.66765 19937 ft 343 kts 105°
2026-05-05 23:03 52.38348 19.70559 19518 ft 340 kts 105°
2026-05-05 23:03 52.37938 19.74334 19102 ft 339 kts 99°
2026-05-05 23:04 52.37926 19.78182 18797 ft 336 kts 84°
2026-05-05 23:04 52.38495 19.81853 18797 ft 339 kts 72°
2026-05-05 23:04 52.39325 19.85488 18790 ft 346 kts 70°
2026-05-05 23:04 52.40225 19.89111 18795 ft 345 kts 69°
2026-05-05 23:05 52.41150 19.92751 18798 ft 345 kts 69°
2026-05-05 23:05 52.42061 19.96361 18610 ft 348 kts 69°
2026-05-05 23:05 52.42974 20.00018 18336 ft 344 kts 69°
2026-05-05 23:05 52.43859 20.03604 18095 ft 340 kts 70°
2026-05-05 23:06 52.44741 20.07212 17856 ft 340 kts 70°
2026-05-05 23:06 52.45609 20.10782 17599 ft 341 kts 70°
2026-05-05 23:06 52.46483 20.14393 17360 ft 339 kts 70°
2026-05-05 23:06 52.47339 20.17940 17127 ft 338 kts 70°
2026-05-05 23:07 52.48210 20.21551 16667 ft 339 kts 70°
2026-05-05 23:07 52.49066 20.25097 16183 ft 335 kts 70°
2026-05-05 23:07 52.49916 20.28630 15695 ft 334 kts 71°
2026-05-05 23:07 52.50566 20.32243 15187 ft 330 kts 84°
2026-05-05 23:08 52.50559 20.35922 14692 ft 320 kts 108°
2026-05-05 23:08 52.49737 20.39188 14229 ft 313 kts 124°
2026-05-05 23:08 52.48625 20.42281 13739 ft 313 kts 126°
2026-05-05 23:08 52.47507 20.45281 13235 ft 308 kts 126°
2026-05-05 23:09 52.46421 20.48245 12741 ft 304 kts 125°
2026-05-05 23:09 52.45351 20.51230 12239 ft 302 kts 125°
2026-05-05 23:09 52.44303 20.54192 11752 ft 301 kts 124°
2026-05-05 23:09 52.43278 20.57117 11255 ft 298 kts 124°
2026-05-05 23:10 52.42251 20.60055 10752 ft 295 kts 124°
2026-05-05 23:10 52.41252 20.62909 10247 ft 293 kts 124°
2026-05-05 23:10 52.40248 20.65776 9887 ft 284 kts 125°
2026-05-05 23:10 52.39277 20.68542 9652 ft 281 kts 125°
2026-05-05 23:11 52.38309 20.71292 9405 ft 277 kts 125°
2026-05-05 23:11 52.37344 20.74025 9144 ft 277 kts 125°
2026-05-05 23:11 52.36383 20.76743 8893 ft 276 kts 125°
2026-05-05 23:11 52.35432 20.79432 8643 ft 274 kts 125°
2026-05-05 23:12 52.34477 20.82130 8420 ft 276 kts 125°
2026-05-05 23:12 52.33369 20.84647 8137 ft 268 kts 138°
2026-05-05 23:12 52.32022 20.86673 7878 ft 264 kts 144°
2026-05-05 23:12 52.30638 20.88603 7803 ft 261 kts 143°
2026-05-05 23:13 52.29291 20.90588 7803 ft 265 kts 141°
2026-05-05 23:13 52.27962 20.92659 7799 ft 265 kts 140°
2026-05-05 23:13 52.26645 20.94772 7797 ft 266 kts 140°
2026-05-05 23:13 52.25320 20.96917 7802 ft 267 kts 140°
2026-05-05 23:14 52.24003 20.99046 7796 ft 267 kts 140°
2026-05-05 23:14 52.22702 21.01144 7781 ft 266 kts 140°
2026-05-05 23:14 52.21377 21.03276 7799 ft 266 kts 140°
2026-05-05 23:14 52.20070 21.05374 7787 ft 266 kts 140°
2026-05-05 23:15 52.18741 21.07506 7792 ft 267 kts 140°
2026-05-05 23:15 52.17422 21.09621 7795 ft 267 kts 140°
2026-05-05 23:15 52.16111 21.11722 7789 ft 267 kts 141°
2026-05-05 23:15 52.14698 21.13662 7783 ft 259 kts 150°
2026-05-05 23:16 52.13218 21.15090 7795 ft 239 kts 157°
2026-05-05 23:16 52.11755 21.16290 7793 ft 238 kts 158°
2026-05-05 23:16 52.10269 21.17508 7782 ft 238 kts 157°
2026-05-05 23:16 52.08800 21.18756 7804 ft 240 kts 156°
2026-05-05 23:17 52.07326 21.20035 7795 ft 240 kts 156°
2026-05-05 23:17 52.05887 21.21295 7696 ft 234 kts 156°
2026-05-05 23:17 52.04453 21.22551 7207 ft 235 kts 156°
2026-05-05 23:17 52.03009 21.23807 6757 ft 237 kts 156°
2026-05-05 23:18 52.01568 21.25062 6394 ft 238 kts 156°
2026-05-05 23:18 52.00105 21.26332 6089 ft 237 kts 156°
2026-05-05 23:18 51.98656 21.27582 5759 ft 237 kts 156°
2026-05-05 23:18 51.97192 21.28822 5417 ft 236 kts 161°
2026-05-05 23:19 51.95636 21.29267 5029 ft 227 kts 194°
2026-05-05 23:19 51.94250 21.28223 4734 ft 219 kts 221°
2026-05-05 23:19 51.93267 21.26412 4421 ft 217 kts 239°
2026-05-05 23:19 51.92679 21.24153 4109 ft 217 kts 254°
2026-05-05 23:20 51.92536 21.21752 3915 ft 213 kts 274°
2026-05-05 23:20 51.93014 21.19546 3791 ft 209 kts 297°
2026-05-05 23:20 51.93950 21.17771 3518 ft 213 kts 314°
2026-05-05 23:20 51.95175 21.16378 3281 ft 213 kts 322°
2026-05-05 23:21 51.96416 21.15107 3157 ft 212 kts 317°
2026-05-05 23:21 51.97534 21.13551 3017 ft 211 kts 314°
2026-05-05 23:21 51.98713 21.12183 2978 ft 212 kts 323°
2026-05-05 23:21 52.00025 21.11022 2976 ft 216 kts 327°
2026-05-05 23:22 52.01365 21.09913 2981 ft 216 kts 327°
2026-05-05 23:22 52.02688 21.08774 2986 ft 217 kts 326°
2026-05-05 23:22 52.04032 21.07597 2908 ft 218 kts 326°
2026-05-05 23:22 52.05369 21.06441 2606 ft 220 kts 327°
2026-05-05 23:23 52.06707 21.05288 2307 ft 219 kts 328°
2026-05-05 23:23 52.08028 21.04142 2018 ft 215 kts 328°
2026-05-05 23:23 52.09342 21.03000 1718 ft 210 kts 328°
2026-05-05 23:23 52.10548 21.01956 1508 ft 184 kts 329°
2026-05-05 23:24 52.11622 21.01020 1193 ft 167 kts 330°
2026-05-05 23:24 52.12592 21.00173 928 ft 154 kts 331°
2026-05-05 23:24 52.13488 20.99382 806 ft 146 kts 332°
2026-05-05 23:24 52.14388 20.98627 603 ft 143 kts 333°
2026-05-05 23:25 52.15253 20.97862 413 ft 145 kts 334°
2026-05-05 23:25 52.16103 20.97135 338 ft 121 kts 332°
2026-05-05 23:25 52.16627 20.96667 331 ft 54 kts 332°
2026-05-05 23:25 52.16902 20.96518 331 ft 35 kts 359°
2026-05-05 23:26 52.17085 20.96562 332 ft 23 kts 46°
2026-05-05 23:26 52.17147 20.96753 333 ft 11 kts 64°
2026-05-05 23:26 52.17181 20.96880 334 ft 12 kts 63°
2026-05-05 23:26 52.17205 20.96951 336 ft 0 kts 60°